Location: Brown Observing Site
(43.4354°N, 116.3366°W)
Time: 03:11:36
(UTC-06:00)

Tiangong 2 - Visible Passes

Search period start: 20 March 2019 00:00
Search period end: 30 March 2019 00:00
Orbit: 379 x 390 km, 42.8° (Epoch: 19 March)

Date Brightness Start Highest point End Pass type
(mag) Time Alt. Az. Time Alt. Az. Time Alt. Az.
20 Mar 4.3 05:12:44 12° E 05:12:44 12° E 05:13:05 10° E visible
20 Mar 1.7 06:44:58 23° WSW 06:46:32 41° SSW 06:49:33 10° SE visible
21 Mar 2.6 05:48:22 31° SE 05:48:22 31° SE 05:50:14 10° ESE visible
22 Mar 2.2 06:24:07 27° SSW 06:24:10 27° SSW 06:26:56 10° SE visible
23 Mar 4.1 05:27:46 10° SE 05:27:46 10° SE 05:27:48 10° SE visible
23 Mar 3.4 07:00:15 10° SW 07:01:00 11° SW 07:01:45 10° SSW visible
24 Mar 3.8 06:03:48 11° SSE 06:03:48 11° SSE 06:03:56 10° SSE visible
